Theta_e
300 300 300 300 302 301 301 302 303 302 301 302 301 300 301 296 294 293 292 296 298 301 303 301 303 305 306 306 307 306 306 309 309 306 306 307 308 309 309 308 309 310 307 305 306 306 307 308 309 311 313 315 316 315 314 313 312 313 316 315 315 313 313 315 316 320 327 331 328 325 323 322 321 318
303 303 301 300 302 302 300 301 302 301 300 300 302 301 299 299 298 294 291 293 296 301 300 302 302 304 305 306 306 306 305 309 307 305 305 305 306 308 308 307 308 308 306 305 305 307 308 308 309 310 313 313 314 313 313 312 311 313 315 313 314 315 316 316 317 320 322 323 324 322 323 323 321 320
304 301 302 300 300 300 301 302 302 301 302 300 300 299 301 301 299 296 294 292 294 300 299 300 302 302 303 305 304 304 304 307 307 304 304 304 307 307 306 307 306 306 306 305 305 307 309 308 307 308 310 311 311 310 310 313 312 312 312 310 311 315 318 318 318 321 322 321 322 323 322 321 320 320
302 300 301 301 300 300 300 301 301 300 301 301 301 301 301 300 298 297 294 294 296 297 300 300 301 303 303 303 302 301 303 305 307 303 303 304 306 304 304 305 305 305 304 304 303 304 305 306 306 305 303 304 305 307 307 309 308 308 309 309 311 313 315 317 317 321 322 322 321 320 320 321 320 319
301 301 301 301 301 301 300 299 301 301 300 299 300 301 299 299 300 299 296 295 295 296 297 299 300 302 301 300 300 300 300 301 302 304 302 303 303 303 302 303 304 304 304 303 302 303 303 304 303 300 300 302 302 303 304 304 304 305 306 304 304 307 312 314 315 315 319 320 320 318 319 318 318 317
304 302 301 302 301 300 300 299 301 300 299 299 299 299 299 298 299 298 297 295 294 294 296 298 299 299 299 298 300 299 299 298 300 300 301 302 302 302 301 302 303 303 304 302 303 303 303 302 301 302 301 301 302 303 303 303 302 303 301 300 302 305 309 310 310 310 314 317 318 317 317 316 316 317
303 301 302 301 301 302 300 298 298 299 299 299 299 298 298 297 297 297 297 296 294 294 294 295 296 297 297 297 299 298 298 298 299 299 299 300 301 302 301 301 302 302 302 302 302 302 302 302 301 302 302 302 301 301 302 302 302 301 300 301 302 302 302 302 303 304 305 309 312 314 315 314 315 318
304 304 301 301 301 301 300 298 298 298 298 298 298 296 296 295 295 295 295 295 293 293 291 292 295 297 296 296 298 297 296 296 298 298 297 298 298 298 299 299 300 302 303 302 302 302 302 301 301 301 301 302 302 302 303 302 301 301 301 301 300 300 300 300 300 300 303 306 309 310 311 312 315 318
305 305 305 303 302 301 301 298 298 298 298 297 296 294 293 293 294 295 294 293 292 291 290 291 292 294 294 296 296 296 294 295 296 296 296 296 297 296 297 299 300 301 303 302 302 301 301 301 301 301 301 301 301 301 301 301 301 301 302 301 301 301 300 300 300 300 300 301 302 306 308 309 312 317
306 306 305 303 303 302 302 301 299 298 297 294 293 292 291 292 292 292 292 292 292 291 290 290 292 291 292 291 292 294 294 294 294 295 296 295 295 296 296 297 299 300 302 300 300 300 299 300 300 300 300 301 300 301 301 301 302 302 301 301 301 301 300 300 300 299 299 299 299 299 303 306 309 313
306 306 306 304 305 304 304 303 302 299 297 297 295 295 293 292 292 292 292 291 291 290 290 289 290 290 292 292 291 293 293 293 293 293 293 294 295 295 295 296 297 298 299 299 299 299 299 300 299 299 300 300 300 300 299 300 301 301 301 301 300 300 299 300 300 300 300 299 299 299 298 301 306 309
307 306 305 305 305 306 306 305 304 303 301 298 296 296 295 294 292 292 291 290 290 290 289 289 288 288 288 290 290 293 292 292 292 293 292 291 293 294 295 294 295 296 297 296 296 298 298 298 298 299 298 299 299 299 299 300 302 302 300 299 298 298 298 299 299 299 300 300 300 300 299 299 299 304
306 306 306 305 305 307 311 307 305 304 303 298 295 295 295 294 292 291 292 291 289 289 290 290 289 288 289 289 290 290 290 290 289 291 291 291 292 293 293 295 294 295 294 295 294 295 295 295 295 295 295 297 299 298 300 299 300 300 298 298 298 298 298 298 298 299 299 299 299 299 299 299 299 299
307 307 306 307 312 309 309 305 300 299 299 301 299 296 296 295 292 291 290 290 289 290 290 289 288 289 289 288 288 288 289 290 290 290 291 290 292 291 292 293 291 294 294 293 293 293 295 295 294 294 294 296 297 296 297 297 298 299 298 298 298 298 298 298 298 298 298 299 299 299 298 298 299 298
308 307 307 306 309 308 307 305 298 297 296 296 296 296 297 297 295 292 290 289 289 291 290 289 288 287 288 289 289 288 289 289 289 289 290 290 290 289 289 288 292 294 293 292 291 291 293 293 293 293 294 295 296 296 296 297 298 298 298 298 297 298 298 298 298 298 298 298 298 298 298 299 299 299
307 306 306 306 308 308 308 304 298 296 295 294 294 293 294 294 295 295 293 291 289 288 288 288 288 287 287 287 287 288 288 289 288 288 288 287 287 288 287 287 288 292 294 291 290 290 292 292 293 292 294 295 295 296 297 297 297 297 298 297 297 298 298 298 298 298 298 297 297 297 297 297 298 297
306 305 305 305 306 307 308 303 298 297 296 294 293 293 293 292 292 292 293 294 293 290 289 288 287 288 287 287 288 291 290 289 287 287 287 287 286 287 287 287 288 290 291 290 289 289 290 291 291 291 293 293 294 295 296 297 297 297 297 297 298 298 297 298 298 297 297 297 297 297 296 296 296 296
304 304 303 303 303 303 303 300 299 299 298 297 297 297 296 296 295 292 291 290 291 292 291 289 288 288 289 290 288 291 290 288 287 286 286 286 286 286 287 288 288 290 292 289 287 287 289 290 290 289 291 293 293 294 296 297 297 296 296 297 297 297 297 297 297 297 297 297 297 296 296 295 295 295
301 300 301 300 300 300 300 301 301 300 299 299 298 296 295 294 293 292 292 290 289 290 289 288 289 288 289 288 288 288 288 288 288 288 287 287 288 288 288 287 288 288 289 289 286 285 287 288 289 289 291 292 292 293 295 296 296 296 296 297 297 296 296 296 296 296 296 296 296 296 296 295 295 295
297 298 299 299 299 299 300 298 295 297 299 298 296 294 293 293 292 292 292 292 293 292 288 287 288 288 288 292 289 289 288 287 287 288 288 286 286 285 283 283 285 286 286 287 287 286 286 285 288 289 290 291 290 292 292 294 296 296 296 297 296 296 295 295 296 296 296 296 296 296 295 295 294 294
296 296 296 297 298 297 295 292 291 293 295 295 294 293 292 291 290 289 289 291 291 291 291 291 291 290 290 290 290 290 290 289 288 286 283 283 282 282 282 283 282 283 285 287 288 287 285 286 287 288 289 290 290 291 291 292 294 295 296 296 297 296 296 295 295 296 296 295 295 295 295 295 294 294
294 299 304 300 294 293 292 290 291 291 294 293 292 291 290 289 288 287 286 287 289 290 290 290 289 289 289 290 290 290 291 290 291 285 283 284 283 283 283 282 283 284 285 287 288 285 285 287 286 287 289 289 288 290 290 290 291 294 294 295 296 296 296 296 296 296 296 295 295 295 295 294 295 297
290 291 295 297 294 293 291 289 290 290 292 291 291 290 289 288 286 285 284 284 284 284 285 284 286 286 288 288 286 289 290 290 291 288 286 285 283 283 283 283 283 282 282 285 287 285 285 285 286 286 287 286 288 288 290 290 290 292 292 292 293 295 295 296 296 296 296 295 295 294 294 294 294 296
289 290 291 292 289 289 289 289 289 289 290 291 290 289 287 286 283 283 284 287 285 284 284 283 283 284 284 284 284 284 285 287 288 288 287 286 285 284 283 284 284 282 282 283 288 286 287 287 287 288 289 287 285 288 289 290 290 291 289 291 289 294 295 295 295 296 296 295 294 294 294 294 294 296
290 290 290 290 290 289 289 289 289 289 290 290 289 287 285 284 286 286 284 285 290 284 284 284 284 284 284 283 284 283 284 286 287 287 287 287 286 285 284 283 283 284 285 287 291 288 287 289 287 288 288 289 289 289 288 288 288 288 291 291 290 291 292 293 294 294 295 295 294 294 293 293 294 295
290 290 290 290 289 288 288 288 288 289 289 289 291 288 288 288 287 286 287 285 284 283 283 282 282 283 282 281 283 284 285 286 288 287 286 286 286 286 286 285 284 284 285 288 290 289 287 287 288 288 288 287 287 288 288 287 287 289 291 289 288 290 289 291 291 292 294 295 294 293 293 293 293 294
289 290 291 292 290 288 288 288 288 288 288 289 288 288 287 287 287 287 285 284 283 282 282 282 282 281 281 282 282 283 284 285 285 286 286 286 286 287 288 288 287 286 288 288 291 290 289 288 290 288 287 288 287 288 288 287 288 288 288 288 289 289 290 289 289 291 292 293 294 293 293 292 292 292
290 290 291 291 288 288 288 288 288 288 288 286 287 288 287 287 288 286 284 283 282 283 282 281 281 282 282 282 282 284 285 286 286 286 286 286 286 286 287 287 288 289 288 288 289 290 290 289 289 290 290 288 287 286 286 290 290 290 289 288 287 288 289 288 288 290 290 288 289 291 292 293 293 292
291 289 288 288 288 288 288 288 288 288 288 287 287 287 287 290 284 283 282 283 283 281 281 282 282 282 283 284 285 285 285 286 286 286 287 286 287 287 287 287 288 288 290 290 289 289 289 289 289 290 290 290 288 288 289 288 289 289 289 289 287 285 286 288 289 288 289 287 288 288 290 290 290 291
288 288 288 288 288 288 288 286 285 284 285 287 287 287 287 283 282 282 282 282 282 281 282 282 282 282 282 283 284 284 284 284 284 285 285 285 285 285 285 285 285 286 287 288 289 288 288 289 289 289 289 289 289 288 289 288 288 290 290 289 290 289 288 289 289 289 289 290 289 287 288 286 287 289
287 288 287 286 287 287 287 286 286 286 286 284 283 281 281 282 281 283 282 281 282 282 281 282 282 282 283 283 283 283 283 284 284 285 285 284 284 284 284 284 284 284 285 286 287 288 288 288 288 288 287 288 289 289 289 289 288 289 290 291 290 287 289 289 290 291 291 290 289 288 287 286 286 289
287 286 286 285 283 283 283 282 281 281 281 282 283 281 280 281 282 284 286 286 281 281 281 281 281 281 282 282 283 284 284 284 285 285 285 284 284 285 284 283 283 283 283 284 285 286 287 288 288 288 288 288 286 288 289 289 289 289 290 291 290 291 292 291 292 292 293 290 288 288 286 286 288 290
284 283 282 281 281 280 277 277 277 278 278 278 280 280 281 282 282 281 280 281 281 282 281 281 282 283 284 284 284 284 284 284 284 285 284 285 284 285 284 283 283 283 282 283 284 285 285 287 288 289 289 289 290 289 288 286 288 289 289 289 289 289 289 291 291 291 291 288 288 288 288 288 290 290
281 278 277 275 276 276 276 275 276 276 275 276 278 277 281 279 280 281 280 280 280 281 281 283 283 284 284 283 284 284 284 284 284 285 285 284 285 284 283 283 283 284 284 284 284 285 286 287 288 288 289 289 290 290 289 288 287 288 288 288 288 288 289 290 291 291 291 290 289 287 286 287 288 289
278 277 277 275 274 275 275 275 276 275 276 277 277 278 278 278 278 279 280 282 282 283 283 284 284 284 284 283 284 283 284 284 284 284 285 285 284 284 284 283 283 284 284 284 285 286 286 286 286 286 286 287 287 288 292 291 288 288 288 288 288 288 289 290 290 290 291 289 288 288 287 286 286 287
275 274 276 275 275 274 275 276 276 276 276 276 277 278 279 280 280 280 282 284 284 284 284 284 284 284 284 284 284 284 284 284 284 284 284 284 284 284 284 284 284 284 285 284 285 286 286 285 285 284 283 283 283 282 284 291 292 289 287 286 288 288 289 290 290 290 289 288 288 288 287 287 286 287
275 274 274 275 277 277 277 275 276 276 278 278 278 279 279 280 281 283 285 285 284 284 284 284 284 284 284 284 284 284 284 284 283 284 284 284 284 284 283 284 284 284 284 285 285 285 285 285 285 284 283 282 281 280 283 287 289 292 290 287 287 287 288 287 287 288 288 289 288 288 287 286 286 287
275 275 275 278 279 279 277 277 277 277 279 279 279 279 280 282 284 284 285 284 284 284 284 284 284 284 284 284 284 284 284 284 284 283 284 284 283 283 283 283 283 284 284 285 285 285 286 285 285 285 284 281 281 281 281 285 286 287 290 290 287 287 287 287 287 287 287 287 287 286 286 286 286 286
279 277 277 278 279 279 277 277 278 278 280 280 280 280 282 283 283 283 283 283 284 284 284 284 284 284 284 284 284 284 283 283 283 283 283 284 284 283 283 283 283 284 284 284 285 285 285 285 285 285 284 283 282 283 284 284 284 285 286 290 289 288 287 287 287 287 286 285 285 285 285 286 287 287
278 278 278 279 280 279 279 278 279 279 281 281 282 282 282 281 282 282 283 283 284 284 284 284 284 284 284 284 284 284 284 283 283 283 283 284 284 284 284 284 283 284 283 283 283 284 285 285 285 285 285 286 286 287 286 286 286 286 286 288 289 289 287 286 286 286 285 286 286 285 284 285 284 285
278 278 280 279 279 279 279 279 280 281 281 282 282 282 282 281 282 282 283 284 284 284 284 284 284 284 284 284 284 284 283 283 283 284 284 284 284 284 284 284 283 284 283 282 283 283 284 286 287 287 287 287 287 286 285 283 283 284 285 286 289 289 289 289 289 287 285 286 286 285 284 284 284 284
278 278 279 279 280 279 280 280 281 281 281 281 282 282 282 282 282 284 284 284 284 284 284 284 284 284 284 284 284 284 283 283 283 283 284 283 283 284 284 284 283 283 283 282 283 284 286 287 287 286 286 286 285 283 282 283 283 284 284 285 285 287 288 288 289 289 288 286 286 284 284 284 284 283
278 277 278 278 278 279 278 280 280 280 280 281 281 282 282 282 283 283 283 284 284 284 284 284 284 284 284 284 284 284 284 283 283 283 284 284 283 283 283 283 284 284 284 284 285 285 286 286 286 285 285 285 284 284 282 284 284 284 284 284 285 285 286 289 289 289 288 288 288 286 286 285 283 281
276 276 277 276 277 278 278 279 280 280 280 280 281 281 281 282 282 283 283 283 284 284 284 284 284 284 284 284 284 284 284 284 284 284 284 284 284 284 284 284 284 284 284 284 284 285 285 285 285 285 284 284 285 284 283 284 284 284 285 284 285 285 285 285 286 287 287 287 287 288 288 287 287 287
276 277 276 273 274 275 276 278 278 280 279 280 281 281 281 281 282 283 283 283 284 284 284 284 284 284 284 284 284 284 284 285 285 284 285 284 284 284 284 284 284 284 284 284 284 284 285 285 285 285 285 285 285 285 285 285 284 285 284 284 284 284 285 285 285 284 284 284 285 286 286 286 286 286
Wind_Speed
3 4 4 4 3 3 2 3 4 3 4 4 3 3 5 2 5 1 2 2 2 3 3 4 4 5 6 6 6 6 6 8 9 6 6 6 5 9 11 11 11 11 11 10 9 8 8 7 7 8 7 8 8 9 9 8 7 8 9 9 10 12 14 16 18 21 19 21 19 17 17 18 19 18
4 3 3 3 3 1 3 3 3 3 3 5 5 4 3 4 6 2 2 0 1 2 3 3 3 6 7 6 6 5 6 9 9 6 6 6 6 11 11 12 11 11 11 11 10 9 8 8 9 9 9 8 9 9 9 10 11 9 9 9 9 9 11 14 15 15 17 18 19 15 16 16 18 19
4 3 3 2 3 3 3 4 4 3 3 4 3 4 5 5 4 5 2 2 2 1 3 3 2 3 5 5 5 7 6 9 10 7 7 6 11 11 10 14 14 14 14 12 11 10 9 9 9 9 8 9 10 10 10 10 11 10 8 8 8 8 9 10 13 16 16 16 17 17 15 14 15 18
3 3 3 2 2 2 4 4 5 4 4 3 5 5 6 5 3 4 3 3 2 1 1 3 4 4 5 4 7 7 7 9 11 7 8 9 11 9 8 12 15 16 16 13 10 8 7 7 7 7 8 8 9 9 9 10 10 10 9 7 7 7 7 8 9 13 13 14 15 16 16 17 14 13
3 4 4 2 1 1 4 3 4 5 4 5 6 5 6 6 5 4 3 3 2 2 0 1 3 3 4 5 5 7 7 8 8 8 7 8 8 8 8 8 13 18 18 17 15 13 13 12 12 12 11 10 9 8 7 7 8 8 9 8 7 7 7 7 7 8 10 11 12 13 15 16 16 14
4 4 4 3 2 2 4 4 4 3 5 5 6 6 6 6 5 3 4 2 3 3 3 5 3 4 4 4 6 7 7 7 5 7 7 6 6 7 7 8 8 16 15 16 17 16 16 16 15 16 15 14 12 10 9 7 6 7 7 7 7 8 9 8 7 6 8 10 10 11 12 13 14 15
3 4 4 4 3 3 4 4 3 3 5 4 6 4 4 6 4 4 3 4 4 4 3 2 5 5 5 5 6 7 5 4 4 5 6 5 5 5 6 6 5 11 12 14 14 14 15 14 14 15 15 15 14 13 12 11 10 8 8 7 6 6 7 8 9 8 5 7 9 10 10 11 12 14
4 4 4 3 3 3 4 4 4 4 4 5 5 5 4 5 4 3 4 4 3 1 4 3 3 4 6 3 3 6 4 6 5 5 4 3 4 4 6 5 5 7 9 10 11 12 12 12 12 13 14 14 15 15 15 14 12 10 9 8 7 5 6 6 8 8 7 8 9 10 9 10 12 15
5 4 5 4 4 4 4 3 4 3 4 3 5 5 3 5 4 3 4 4 3 3 4 3 1 3 3 2 3 6 8 7 4 4 6 5 4 5 3 3 5 7 7 7 9 10 11 12 12 12 12 11 11 13 13 13 13 11 9 9 8 8 6 5 6 7 8 8 8 9 11 12 13 16
5 5 5 4 5 5 5 5 4 4 5 3 4 4 3 4 4 5 3 3 4 4 2 1 3 3 5 4 2 4 5 6 8 9 7 3 4 7 9 6 6 5 3 4 6 7 9 12 13 13 13 12 11 12 12 11 11 10 9 9 9 10 9 8 7 7 8 8 9 9 10 11 13 15
4 5 5 5 6 6 6 5 6 5 4 4 4 5 5 4 5 5 4 4 5 4 4 2 1 2 1 2 4 3 3 3 3 7 9 11 5 5 6 10 6 3 4 3 5 6 7 9 8 11 12 11 12 12 12 11 10 10 10 9 10 11 11 11 10 9 9 9 9 10 10 10 12 13
5 6 5 6 7 8 7 7 6 7 7 6 6 5 5 4 5 5 4 5 4 4 4 3 2 2 2 4 1 2 4 4 1 4 3 7 10 10 7 3 8 4 3 5 6 6 8 8 9 11 11 11 12 12 10 11 10 11 11 11 12 11 11 11 11 11 10 10 10 11 11 11 11 12
5 5 5 6 7 7 9 12 11 10 8 7 6 3 3 3 5 5 5 5 4 3 3 2 1 3 4 3 5 7 5 5 4 5 3 3 4 6 9 7 3 2 4 5 6 6 6 7 8 7 7 8 11 10 12 9 11 12 13 13 12 12 11 11 11 11 11 11 11 12 12 12 12 12
5 6 6 6 11 13 13 12 12 11 8 4 5 7 5 5 3 3 4 5 4 3 1 0 1 4 5 3 2 2 2 3 3 4 4 6 6 5 5 6 1 1 4 7 9 7 4 6 7 5 7 7 6 6 7 8 11 14 14 13 13 13 13 13 13 12 12 12 12 12 13 12 12 12
7 6 6 5 8 10 10 10 12 10 10 10 11 10 9 8 6 4 3 3 4 4 3 2 1 2 4 4 1 1 3 2 3 3 4 5 5 6 7 10 6 1 6 7 8 10 4 3 7 7 6 6 6 6 7 12 15 15 14 13 13 14 14 15 15 14 14 13 12 12 13 13 12 12
6 6 6 5 5 6 8 5 6 7 10 11 10 9 9 8 7 6 4 3 2 3 4 3 3 2 3 3 2 1 2 4 3 3 3 2 3 5 6 5 7 5 7 8 10 11 4 2 5 6 5 5 5 7 11 15 15 14 12 12 12 12 13 13 13 13 13 13 13 13 13 13 13 13
6 5 5 5 4 3 7 7 6 6 5 5 6 6 6 5 5 4 4 3 2 5 3 3 2 4 2 1 1 0 1 0 3 3 4 3 3 4 6 7 7 8 4 5 8 12 7 3 4 6 6 5 5 7 10 14 14 13 12 10 9 10 10 11 12 13 14 14 13 12 12 12 13 13
4 4 4 4 3 3 4 5 6 5 5 5 4 2 3 4 7 8 8 7 7 3 2 3 2 1 1 1 1 0 1 0 3 3 5 3 6 6 8 7 8 9 4 6 4 9 8 4 5 6 6 5 5 6 9 14 14 11 9 7 9 9 9 9 10 11 12 13 14 13 11 11 11 11
2 3 3 3 4 4 4 5 7 7 6 5 4 4 5 5 5 5 4 3 2 1 1 1 0 0 1 2 2 2 2 3 3 3 5 5 6 7 6 6 6 7 4 4 2 8 6 4 6 6 6 6 6 5 7 13 11 8 6 7 8 9 10 10 9 9 11 12 13 13 12 11 10 8
1 2 4 4 4 4 4 4 7 6 5 5 5 5 4 5 5 5 3 5 5 4 3 2 2 1 2 3 2 3 3 3 3 3 2 3 4 5 5 6 5 4 4 3 5 7 6 3 7 8 6 6 6 6 5 10 8 6 7 6 5 6 8 9 9 9 10 11 12 12 12 11 9 8
3 3 3 5 6 6 5 5 9 9 9 6 6 5 5 3 3 2 0 2 4 4 4 3 3 3 4 4 4 5 6 3 3 1 3 5 3 5 7 6 3 4 3 3 6 6 7 3 4 7 6 5 6 6 7 6 6 6 7 6 6 7 7 8 8 8 9 9 10 11 12 11 9 9
5 5 9 7 6 7 5 8 11 10 8 7 6 5 4 2 1 2 1 1 0 1 2 2 2 4 3 3 4 5 5 6 3 1 5 5 3 6 4 7 5 6 3 6 2 2 5 5 3 6 6 6 4 5 6 6 4 6 7 8 8 8 9 8 8 8 8 8 9 9 10 11 9 5
6 6 7 9 9 8 8 12 11 11 8 6 5 4 3 1 1 3 1 1 2 3 4 4 4 4 6 4 4 5 9 9 8 3 5 4 4 6 6 6 7 7 2 3 2 6 6 5 5 4 6 6 5 4 5 4 4 6 5 5 6 9 9 8 8 8 8 7 7 7 9 10 8 4
5 6 6 8 11 12 12 11 11 9 9 6 4 3 2 0 2 1 0 0 0 2 2 4 3 4 4 5 4 5 5 6 4 5 5 4 5 6 6 6 5 7 4 1 3 5 5 4 5 2 4 8 7 3 2 4 5 6 4 6 4 7 7 7 6 8 9 7 6 6 6 8 7 4
5 5 5 4 7 9 9 9 9 8 7 5 3 2 1 1 0 2 0 2 1 1 2 2 3 5 5 5 4 5 5 6 6 5 5 5 5 6 6 7 7 8 6 6 8 5 5 4 8 6 6 6 8 8 4 4 5 5 5 6 6 6 6 6 5 6 7 8 5 4 4 5 6 4
5 5 4 4 5 7 7 6 5 6 6 4 2 1 1 1 1 1 1 1 1 1 1 2 3 4 5 5 5 5 5 6 6 6 6 6 6 6 7 7 8 8 7 4 7 6 8 8 6 8 8 8 9 6 9 5 4 6 6 6 4 6 4 5 6 7 6 5 5 3 4 4 2 3
5 3 3 3 4 4 4 4 4 3 2 2 1 2 2 2 2 1 1 0 1 2 2 2 4 4 5 5 6 6 6 6 6 6 6 7 7 6 6 7 8 9 8 6 6 7 7 9 7 8 9 8 10 9 8 8 5 2 4 5 6 6 6 4 6 7 7 6 6 7 6 4 1 1
5 4 3 3 3 3 3 4 3 3 3 2 4 4 4 4 2 0 0 1 1 2 3 4 5 6 5 5 6 6 6 6 6 7 6 7 7 7 7 7 8 7 8 7 7 8 8 9 8 8 9 9 10 10 9 7 6 6 7 3 4 5 6 5 6 6 6 4 5 5 5 5 3 2
4 5 6 6 5 4 6 7 6 6 6 7 5 6 5 4 1 2 2 3 3 5 5 6 6 6 6 6 7 6 6 6 5 5 6 5 6 6 7 7 6 6 6 6 6 7 7 8 9 7 8 8 9 9 8 9 7 7 6 7 6 4 5 5 6 5 6 4 4 4 5 4 4 3
8 8 8 9 8 8 6 4 4 4 4 7 9 8 7 4 4 3 4 4 4 5 6 5 6 6 6 6 6 5 5 6 7 6 7 7 7 6 7 8 7 5 7 6 6 6 7 8 8 8 9 9 9 10 9 9 8 6 6 6 7 4 5 7 5 4 4 5 5 5 5 2 4 2
6 7 6 7 8 8 9 8 6 6 6 5 5 4 4 4 3 4 3 3 5 5 6 5 6 6 6 6 5 6 6 7 7 6 7 7 7 7 7 7 9 8 8 6 6 7 7 8 8 7 9 8 8 9 9 8 10 7 6 6 6 6 3 1 3 5 5 5 4 3 3 2 3 2
6 6 6 7 5 6 6 6 5 5 4 3 4 4 3 3 3 3 5 4 3 4 5 6 5 5 5 6 7 7 7 7 8 7 8 7 8 7 7 8 9 8 8 7 6 6 8 7 7 7 8 8 9 9 8 8 9 8 7 6 7 7 5 6 6 6 6 3 3 5 4 3 4 4
5 6 7 6 6 5 4 4 4 5 5 5 4 3 4 4 5 5 5 6 6 6 6 6 6 7 6 7 7 7 7 7 7 7 8 8 8 8 7 9 9 9 9 9 7 6 5 6 7 9 8 8 9 9 9 9 9 8 8 7 6 6 5 6 6 7 3 2 4 4 5 4 4 3
7 6 6 4 4 3 4 3 3 2 3 3 5 4 4 4 5 5 5 5 5 6 6 6 7 7 7 7 7 7 7 7 7 7 8 8 8 8 8 9 9 8 9 9 9 8 6 5 6 7 8 8 8 9 9 10 9 7 7 5 5 7 7 7 6 6 5 6 5 4 3 4 3 2
5 5 6 3 2 1 1 2 2 2 3 4 4 5 5 4 4 4 5 5 5 6 7 7 7 7 7 8 7 8 8 8 8 8 7 7 8 8 8 9 9 9 8 9 9 7 6 6 6 7 7 7 8 8 10 11 9 9 7 7 7 8 8 6 6 6 5 5 3 4 4 4 3 1
4 4 6 3 2 1 3 1 2 2 3 4 5 5 6 6 5 5 5 5 6 6 7 7 7 7 7 8 8 8 8 9 8 8 8 7 7 8 8 9 9 9 8 8 8 7 6 7 6 7 9 7 6 8 7 11 14 8 8 8 6 6 6 6 5 4 3 4 4 5 4 4 2 1
4 3 4 3 1 1 1 1 2 3 4 4 5 5 5 6 6 6 6 6 6 6 6 7 7 8 8 8 9 9 9 9 9 8 8 8 8 8 9 9 9 9 9 9 7 8 6 7 6 7 8 8 9 9 8 1 9 12 7 7 6 4 5 3 3 4 4 4 4 5 4 3 1 1
5 3 3 1 0 1 1 2 2 3 4 5 5 5 4 5 6 7 7 6 6 6 6 7 7 8 8 8 8 8 8 8 8 9 8 8 8 8 8 8 8 8 8 8 7 7 6 7 7 7 8 9 8 8 8 4 2 4 4 5 5 5 2 2 3 4 4 0 2 2 2 3 3 2
5 4 2 1 0 1 1 2 2 4 4 5 4 5 7 7 6 7 6 6 6 7 7 8 8 8 9 9 8 8 8 8 8 8 8 8 8 8 8 8 8 8 8 8 7 7 7 7 7 7 8 9 9 7 6 6 6 3 3 2 4 5 4 4 3 2 1 2 3 4 5 5 6 8
3 3 2 1 0 1 2 2 4 3 4 5 5 6 6 7 6 6 7 7 7 8 8 8 9 9 8 8 8 8 8 9 9 8 8 8 8 9 9 8 8 8 8 9 8 7 7 8 7 7 7 8 8 7 6 5 5 4 4 6 7 7 3 1 3 1 1 2 4 5 5 3 3 2
3 2 1 1 0 1 2 3 3 4 5 6 6 6 6 6 6 6 7 8 8 8 8 8 8 9 8 8 8 8 8 8 8 8 8 9 9 9 10 10 9 8 8 9 9 8 9 8 8 10 9 6 6 4 4 5 7 5 5 5 6 7 7 7 5 4 3 4 3 5 4 4 4 3
3 2 0 0 1 2 3 3 5 5 6 6 6 6 6 6 6 10 10 9 8 8 8 8 8 8 8 8 8 8 8 8 8 9 8 8 8 8 9 8 8 8 8 8 9 9 8 5 5 5 5 5 5 5 7 5 5 4 2 3 3 3 3 7 10 6 8 8 7 5 4 4 3 4
2 1 1 1 1 2 3 4 5 5 6 6 6 6 6 7 7 7 7 7 8 8 8 8 8 8 8 8 8 8 8 8 8 9 9 9 8 8 8 8 8 8 8 8 8 8 7 6 5 5 5 5 5 6 6 5 4 4 2 1 1 3 4 4 7 9 8 7 6 4 2 3 5 3
1 1 1 1 2 3 4 5 5 5 5 6 6 6 6 6 7 8 7 7 7 8 8 8 8 8 8 8 8 8 7 8 8 8 9 9 8 8 8 8 8 8 8 8 8 8 6 5 5 4 5 5 5 5 7 5 5 4 3 1 1 2 4 4 6 9 10 11 11 10 9 6 2 2
0 0 2 3 3 4 4 4 5 5 5 6 6 6 7 6 7 7 7 7 7 8 8 8 9 9 9 8 8 8 8 8 8 8 8 8 8 8 8 8 8 8 7 7 7 7 6 5 4 3 4 4 4 5 4 4 4 2 2 3 3 3 3 2 5 6 6 5 9 8 9 10 12 16
Wind_Direction
100 76 71 105 91 45 62 63 52 53 54 64 74 70 79 124 125 79 58 340 21 341 10 47 341 16 19 13 9 18 18 12 16 18 19 13 8 354 356 355 353 353 352 346 342 334 326 321 315 310 306 301 302 305 306 296 275 268 273 263 249 242 236 236 234 234 234 232 233 227 219 212 210 210
97 87 58 45 63 357 59 75 101 81 78 61 59 70 94 104 94 142 111 85 229 335 329 36 6 354 5 7 10 18 6 7 13 10 10 5 359 352 359 358 353 349 346 340 334 331 328 327 328 325 318 315 312 307 303 299 296 286 271 268 262 248 238 240 247 251 245 244 246 241 229 219 213 213
109 98 81 50 49 19 57 44 41 60 77 93 92 72 68 55 108 117 114 89 294 176 9 325 359 357 342 3 8 7 7 4 6 7 4 1 357 6 1 1 358 354 349 347 341 336 331 328 329 325 321 321 319 316 312 304 303 297 285 266 260 255 250 244 243 249 249 249 252 252 255 255 244 226
115 110 102 73 66 26 71 55 45 46 44 71 77 84 79 60 73 110 106 106 315 279 348 334 327 14 350 8 18 9 5 3 10 9 10 6 11 18 9 7 7 6 0 359 350 341 334 334 335 332 330 325 321 318 317 317 314 311 304 289 271 263 256 251 250 255 257 250 250 253 251 252 248 242
128 129 132 127 80 94 87 78 62 55 52 64 65 68 75 62 40 67 92 67 351 310 264 346 348 334 5 18 20 22 12 8 2 13 20 17 23 21 13 6 11 11 8 8 9 10 9 4 357 350 342 334 327 323 322 320 315 310 307 304 296 285 275 264 252 249 256 262 254 247 248 249 251 243
166 152 147 163 147 117 111 90 68 79 76 81 74 58 78 68 52 29 91 88 60 341 320 6 341 8 10 30 18 25 11 1 3 21 15 19 27 23 11 8 7 8 13 18 20 22 19 15 12 4 354 343 335 334 339 341 331 318 313 311 309 307 306 299 293 280 272 265 262 261 256 253 251 249
169 155 170 187 165 143 102 93 110 102 93 90 92 90 88 91 73 50 71 86 44 22 327 329 2 10 357 28 10 10 3 354 8 25 19 9 19 22 14 8 5 4 17 22 26 24 20 17 13 8 4 1 359 356 353 350 349 345 338 332 324 315 309 306 305 302 291 288 287 283 279 274 266 259
174 185 182 210 176 153 127 126 111 107 108 105 110 99 93 100 95 79 72 74 108 80 15 317 18 354 10 352 12 4 360 10 7 18 357 7 29 17 13 7 2 353 10 19 23 19 15 11 7 6 4 4 7 8 5 1 358 355 356 355 344 328 307 298 291 290 288 288 283 280 277 277 275 273
188 187 196 191 174 162 146 145 130 138 112 120 110 112 126 108 110 86 83 83 82 84 34 320 309 5 12 346 357 12 2 352 2 5 10 354 5 3 11 1 354 343 4 10 12 10 6 2 358 357 357 356 1 2 360 357 356 357 359 358 352 340 324 294 277 277 281 279 271 269 272 266 266 265
199 194 199 186 177 173 169 183 168 146 139 139 117 110 106 112 101 92 80 85 76 74 67 25 348 357 15 352 343 12 9 356 350 350 350 359 12 6 355 0 352 342 360 356 4 2 359 354 350 349 348 347 350 350 349 347 343 342 345 347 342 333 321 311 296 276 264 262 262 257 254 257 259 262
215 208 196 185 184 188 189 173 174 161 147 137 144 152 147 155 116 97 86 76 68 65 40 7 51 328 312 33 335 343 3 337 40 2 346 343 360 20 4 336 341 336 345 2 3 356 349 342 342 338 338 339 340 339 337 334 331 326 324 325 326 321 315 309 303 297 288 277 271 267 262 257 257 259
214 214 206 196 194 195 192 182 179 171 172 162 155 177 154 143 102 103 103 78 79 65 54 42 331 343 318 340 312 305 347 360 24 48 9 332 334 338 343 331 321 327 2 346 343 346 344 341 338 337 334 335 335 334 333 330 326 323 320 321 319 315 309 305 302 299 294 289 282 275 269 265 260 258
222 220 216 210 206 208 201 193 183 186 176 166 165 176 123 116 119 128 112 119 106 95 78 9 350 347 340 326 344 347 12 16 319 318 6 308 307 316 323 323 285 288 344 337 336 337 342 329 331 329 328 327 331 330 331 324 322 322 323 322 321 318 315 310 306 301 298 293 287 282 278 272 266 260
225 220 214 216 214 210 207 201 196 187 165 138 150 158 146 137 122 132 134 134 137 125 97 253 334 338 315 312 317 310 288 293 318 340 355 337 321 319 297 294 269 346 20 341 330 323 318 312 304 314 315 312 324 319 325 320 316 317 321 323 325 330 332 332 327 319 310 299 290 283 277 272 267 262
237 231 222 221 221 219 216 203 192 163 155 142 143 159 159 158 148 146 141 175 153 146 167 178 156 225 286 294 249 263 284 345 356 326 329 322 331 344 344 327 323 78 12 338 325 312 311 282 298 305 300 302 312 310 306 306 311 315 318 326 337 342 343 338 333 327 319 308 295 283 277 272 266 257
235 231 226 222 216 210 210 167 143 149 147 141 142 152 157 159 160 145 152 151 148 161 164 182 206 177 229 258 323 315 17 328 335 317 324 298 325 320 314 290 290 304 10 331 317 300 314 260 268 284 282 295 297 297 298 303 305 309 319 334 343 344 335 330 327 325 321 315 305 293 281 273 268 262
232 222 213 215 210 185 134 138 147 135 122 106 125 142 134 130 124 94 80 95 151 169 147 169 218 195 195 224 252 90 330 359 329 331 335 320 298 274 278 279 292 298 337 314 295 300 312 319 281 283 283 271 279 294 300 297 298 310 325 331 340 327 321 324 330 331 329 324 318 309 297 284 275 266
226 214 202 188 174 143 147 137 132 129 126 128 109 86 46 55 52 50 43 24 22 27 162 160 197 248 131 185 208 273 144 12 301 302 290 289 294 288 275 280 282 288 295 271 279 283 300 299 297 284 283 277 282 278 284 292 298 313 310 331 322 319 320 330 338 335 332 329 326 323 316 305 290 280
220 196 179 156 146 135 131 137 138 139 145 137 127 90 78 73 74 72 64 78 121 114 90 127 166 189 173 188 215 230 211 217 229 236 253 265 268 274 288 284 259 278 257 252 257 282 305 305 301 286 289 292 284 279 288 288 300 298 306 318 320 324 329 333 338 333 331 331 330 328 323 314 301 285
109 141 139 132 126 125 115 104 127 121 120 107 99 92 77 68 67 65 53 82 95 110 135 155 168 190 199 208 218 240 245 250 251 272 298 310 280 292 300 295 311 295 285 264 273 282 286 275 289 296 290 289 287 283 277 280 289 287 296 294 312 321 316 319 328 330 331 333 332 330 327 323 309 286
54 75 112 118 115 100 84 90 97 106 105 95 94 90 79 67 70 70 355 81 107 117 138 184 198 248 265 275 270 266 268 258 263 279 349 302 294 327 308 295 304 282 310 273 256 277 295 291 285 293 287 280 277 281 274 271 262 266 280 288 319 307 297 302 311 314 323 329 331 330 328 326 320 304
39 50 86 99 98 97 91 88 88 91 95 94 98 98 99 66 19 307 332 3 181 200 227 186 214 225 247 281 305 301 301 305 300 242 287 269 322 292 278 290 295 296 299 273 258 271 250 281 270 281 277 289 269 259 261 261 277 270 287 327 307 293 289 293 298 301 309 320 327 331 332 331 329 309
46 44 50 74 92 95 100 91 89 86 90 101 105 120 107 106 291 260 273 327 345 347 354 338 353 339 342 342 333 318 318 312 307 272 248 263 257 270 274 279 300 310 273 256 11 319 299 312 281 279 304 292 265 253 261 282 284 298 294 279 297 286 289 293 293 294 299 309 320 331 340 340 336 315
51 52 62 65 87 97 96 96 95 96 101 109 125 113 116 193 275 250 119 246 219 294 318 301 318 307 309 319 322 319 311 303 288 281 267 248 236 253 266 268 260 262 263 261 314 283 284 257 283 250 282 305 302 307 299 277 270 271 269 288 287 287 292 299 296 293 300 308 318 331 342 339 336 309
99 80 70 63 73 86 89 90 92 95 102 107 114 109 145 189 154 107 37 296 306 283 290 301 312 305 309 306 301 288 286 278 276 273 268 253 234 235 253 263 264 263 256 263 272 271 277 297 297 300 279 263 280 295 262 254 267 251 258 267 276 280 288 287 294 300 306 306 303 310 316 327 335 322
96 103 103 89 78 83 88 91 87 81 75 60 85 150 172 65 95 222 227 230 259 257 271 282 291 293 294 291 288 283 275 271 270 263 261 261 253 235 227 239 260 275 272 249 255 269 283 284 284 291 287 284 280 271 290 270 249 248 250 261 242 254 266 276 293 295 294 293 297 292 291 293 352 358
106 93 101 104 89 72 66 65 69 78 88 82 22 14 337 299 299 266 228 231 280 309 303 301 292 284 284 286 282 280 278 271 267 265 261 260 257 256 248 239 231 248 264 265 260 265 265 273 272 275 283 283 284 287 273 285 283 287 291 264 256 258 263 259 274 279 286 297 300 308 304 284 279 293
124 120 89 73 64 42 30 26 20 21 31 12 349 341 330 318 325 168 276 306 311 312 311 302 292 286 275 274 278 272 267 270 269 269 266 262 258 258 261 257 258 254 257 251 250 249 254 263 267 259 268 278 280 283 288 276 279 270 270 267 263 264 265 262 265 270 282 309 306 305 315 315 325 333
97 97 96 81 66 60 69 70 64 51 41 33 30 21 2 1 28 4 350 334 341 324 300 289 285 283 275 267 268 273 277 279 285 283 277 270 268 268 267 264 262 265 265 263 254 250 250 255 263 265 264 266 271 275 277 285 285 279 267 277 287 266 256 255 243 262 278 283 269 266 272 279 299 316
93 88 83 86 85 79 82 77 65 60 45 47 38 29 29 22 10 360 351 330 326 301 293 287 285 280 283 282 278 283 292 298 290 290 290 295 291 290 287 289 278 267 260 261 263 262 260 260 262 264 267 265 266 272 272 279 274 269 259 253 262 282 264 255 266 246 256 276 268 269 273 223 244 266
87 84 85 88 89 88 77 73 67 55 32 31 15 10 5 1 346 330 316 293 286 287 284 284 280 283 282 289 303 297 297 293 290 283 288 289 286 287 282 283 285 282 271 259 251 253 254 255 256 256 264 268 266 265 273 268 272 270 263 249 254 258 267 258 259 273 263 261 264 263 282 296 292 254
100 96 84 69 50 53 45 37 30 23 26 30 6 346 343 333 323 312 304 297 276 267 265 272 279 286 296 300 295 293 291 291 292 292 286 286 287 286 291 285 282 283 284 277 261 242 244 244 249 251 250 256 263 269 268 263 263 264 262 246 238 244 243 249 256 260 260 249 276 269 257 248 254 263
80 73 65 62 52 48 59 38 21 4 3 346 339 335 330 332 331 329 336 327 311 306 309 301 297 298 300 297 294 288 284 281 287 291 290 282 281 281 271 273 279 283 287 288 281 261 235 245 239 246 253 256 255 258 260 263 256 254 254 249 246 251 247 242 240 254 241 163 239 254 264 249 234 243
88 77 84 72 88 68 61 45 11 345 336 328 332 322 320 327 331 328 323 308 300 300 296 294 298 298 296 291 288 284 280 280 273 271 272 279 274 274 272 275 275 275 275 279 283 282 273 256 258 255 256 256 254 249 248 256 262 258 253 249 236 248 245 245 242 241 230 224 234 244 245 255 244 240
88 100 95 87 71 80 80 48 346 333 336 328 326 323 319 307 305 311 313 311 309 307 303 297 289 287 286 287 286 284 282 280 279 276 266 261 263 264 268 270 275 275 274 274 274 277 277 277 275 274 269 264 265 258 234 237 256 252 257 246 238 240 250 240 244 246 230 236 194 225 243 255 249 257
77 106 115 95 68 61 40 334 324 326 328 321 326 321 331 325 322 312 305 299 297 297 297 297 297 295 291 287 285 282 282 280 280 278 276 268 267 266 263 264 269 271 269 269 271 272 269 269 264 273 282 280 275 278 276 216 221 238 238 249 241 242 250 253 252 245 230 220 206 207 217 238 220 112
113 104 106 110 98 83 4 310 315 317 319 322 323 328 318 308 303 305 305 304 297 290 289 292 289 287 284 282 281 279 278 279 279 278 275 273 267 267 268 268 265 266 268 267 266 269 261 262 256 257 268 275 275 277 272 315 237 233 226 239 250 235 238 247 256 267 240 212 210 199 204 179 150 97
129 122 105 106 119 310 296 318 332 327 327 332 322 303 286 295 312 309 306 297 290 288 290 289 285 284 282 280 281 280 278 275 274 274 272 271 271 267 264 270 272 269 270 272 267 263 252 253 253 250 254 261 271 269 284 268 241 283 237 213 247 256 212 226 260 260 277 207 183 155 113 110 112 93
125 129 140 134 91 297 333 322 330 333 318 311 308 319 324 314 301 295 294 294 298 303 301 296 291 288 286 284 279 278 280 281 278 276 276 273 269 271 273 272 274 272 272 273 266 259 250 247 244 242 241 252 255 265 269 279 273 261 308 250 228 258 257 223 230 262 204 109 69 64 61 86 92 84
117 123 146 142 292 296 326 330 335 311 311 313 323 313 296 290 293 300 307 311 314 309 301 293 291 289 286 282 282 280 276 275 275 277 276 276 274 271 272 270 269 272 272 271 271 264 254 251 242 240 238 239 247 253 259 268 279 283 274 273 234 221 224 182 259 180 119 127 135 119 120 111 87 2
113 106 143 200 276 338 339 317 310 324 326 319 304 290 285 283 298 305 309 311 309 306 299 294 290 288 287 287 286 284 284 281 278 277 276 275 273 270 268 269 270 265 266 269 268 267 259 251 246 238 235 245 253 280 283 253 259 258 259 263 257 234 229 221 227 197 161 152 142 122 117 112 116 102
146 151 205 243 360 324 322 325 329 332 314 302 294 293 298 305 299 308 309 305 303 299 294 292 292 293 291 291 290 288 283 283 284 281 278 277 276 272 266 264 265 266 260 263 266 266 268 267 259 250 240 236 236 232 245 249 255 261 246 285 304 332 302 246 228 206 160 160 151 134 105 84 77 97
143 143 56 330 337 334 340 341 333 313 298 296 297 305 311 310 307 309 309 310 310 306 300 301 298 296 292 290 289 286 283 280 279 279 278 274 272 271 272 265 263 264 263 265 267 269 271 267 252 242 235 219 223 217 240 238 241 245 243 261 317 352 10 42 118 118 111 89 70 84 123 149 144 149
164 118 329 346 355 339 348 339 313 302 299 302 306 311 309 308 308 307 307 306 308 306 306 304 304 303 301 298 295 291 286 285 284 282 279 278 273 272 271 272 268 266 265 265 270 270 268 264 245 229 228 223 216 216 231 230 240 232 214 156 94 83 94 84 79 72 65 52 51 65 65 75 100 173
211 96 22 344 343 351 336 313 305 303 308 313 320 317 313 311 308 307 305 304 304 305 305 305 305 303 302 300 299 296 295 290 288 285 283 281 279 275 271 269 269 267 266 264 266 271 268 264 254 215 223 229 211 212 224 219 230 194 156 139 121 100 100 102 104 97 80 77 13 36 87 83 90 97